Regional Weather Roundup
Issued by NWS

Home | Current Version | Previous Version | Text Only | Print | Product List | Glossary On
Versions: 1 2 3 4 5 6 7 8 9 10 11 12 13 14 15 16 17 18 19 20 21 22 23 24 25 26 27 28 29 30 31 32 33 34 35 36 37 38 39 40 41 42 43 44 45 46 47 48 49 50
000
ASUS43 KLMK 241802
RWRKY
KENTUCKY REGIONAL WEATHER ROUNDUP
NATIONAL WEATHER SERVICE LOUISVILLE KY
100 PM EST SAT FEB 24 2018

NOTE "FAIR" INDICATES FEW OR NO CLOUDS BELOW 12,000 FEET
WITH NO SIGNIFICANT WEATHER AND/OR OBSTRUCTIONS TO VISIBILITY.

KYZ001>023-026-027-061>063-070>075-241900-
WESTERN AND SOUTH CENTRAL KENTUCKY

CITY           SKY/WX    TMP DP  RH WIND       PRES   REMARKS
PADUCAH        LGT RAIN  56  54  93 CALM      29.89F FOG
HENDERSON      LGT RAIN  53  52  96 E12       29.94F
OWENSBORO      LGT RAIN  53  51  93 E15       29.95F
HOPKINSVILLE   PTSUNNY   71  64  79 S13       29.93F
BOWLING GREEN  CLOUDY    71  64  78 S15       29.97F
GLASGOW        NOT AVBL
$$

KYZ024-025-028>034-038-045-046-053-241900-
NORTH CENTRAL KENTUCKY

CITY           SKY/WX    TMP DP  RH WIND       PRES   REMARKS
LOUISVILLE/SDF LGT RAIN  54  51  90 E6        30.01F
LOUISVILLE/LOU CLOUDY    54  53  97 E7        30.01F FOG
FORT KNOX      LGT RAIN  50  50 100 E12       30.01F FOG
$$

KYZ035>037-039>044-047>052-055>060-089>105-241900-
NORTHEAST KENTUCKY

CITY           SKY/WX    TMP DP  RH WIND       PRES   REMARKS
LEXINGTON      CLOUDY    53  49  86 NE13      30.04F
COVINGTON      CLOUDY    51  49  92 NE9       30.03F
FRANKFORT      CLOUDY    52  47  83 NE7       30.04F
$$

KYZ054-064>069-076>088-106>120-241900-
SOUTHEAST KENTUCKY

CITY           SKY/WX    TMP DP  RH WIND       PRES   REMARKS
JACKSON        LGT RAIN  63  62  97 MISG      30.04S FOG
LONDON         LGT RAIN  65  62  90 SW9       30.06S
SOMERSET       CLOUDY    64  64 100 W8        30.05F
MIDDLESBORO    RAIN      65  62  87 S12G18    30.08F
MONTICELLO     CLOUDY    68  64  87 MISG      30.05F
$$





USA.gov is the U.S. government's official web portal to all federal, state and local government web resources and services.